Погода во Флайинг-Фиш-Коув

Австралия     10°25′05″S   105°40′24″E
темп.,
°C
ветер,
м/с
пор.,
м/с
влажн.,
%
обл.,
%
осадки,
мм/ч
давл.,
гПа
погр.,
м
18 апреля, вс
вс1801:00+28вюв887892 0.2 1013900
04:00+28вюв897917 0.5 1012844
07:00+28вюв787726 1.4 1014874
10:00+28вюв787718 0.3 1014861
13:00+28вюв677824 1.1 1012804
16:00+28вюв777813 0.5 1011828
19:00+28вюв787811 0.6 1013836
22:00+28вюв787825 0.7 1014853
19 апреля, пн
пн1901:00+28вюв787744 1.1 1012881
04:00+28вюв787897 0.8 1011886
07:00+28вюв8977100 1.1 10131000
10:00+28в8107596 0.1 10131051
13:00+28в887635 0.3 1011944
16:00+28вюв787664 0.2 1010885
19:00+28вюв7876100 1.2 1011846
22:00+28вюв7874100 0.1 1012992
20 апреля, вт
вт2001:00+28вюв7875100 0.9 1011914
04:00+28вюв887271 1.2 10111128
07:00+28вюв88725 1.3 10121131
10:00+28вюв89737 0.0 10131106
13:00+28в777261 0.1 10101085
16:00+28вюв787430 0.7 1009911
19:00+28вюв787514 0.9 1011941
22:00+28вюв887520 0.5 1013986
21 апреля, ср
ср2101:00+28вюв8875100 0.7 1011931
04:00+28вюв8872100 0.1 10111119
07:00+28в897296 0.1 10121137
10:00+28в887198 0.0 10131102
13:00+28в776929 0.0 10111160
16:00+28в67724 0.1 10101070
19:00+28вюв677212 0.1 1012945
22:00+28вюв77738 0.0 10131029
22 апреля, чт
чт2201:00+28в777214 0.1 10121041
04:00+28в677035 0.1 10111082
07:00+28в77716 0.1 10121055
10:00+28в777031 0.1 10121101
13:00+28в676978 0.2 10101097
16:00+28в56675 0.0 10091086
19:00+28в566910 0.0 1011996
22:00+28в557034 0.0 1013936